Location: �bnet
(46.9957°N, 8.4908°E)
Time: 14:59:30
(UTC+00:00)

Cosmos 2344 - Pass Details

Date: 11 May 2021
Orbit: 1239 x 3003 km, 63.3° (Epoch: 18 June)

Event Time Altitude Azimuth Distance (km) Brightness Sun altitude
Rises 23:28:11 0° 319° (NW) 4,523 7.2 -24.9°
Reaches altitude 10° 23:30:46 10° 320° (NW) 3,677 6.6 -24.8°
Maximum altitude 23:40:00 89° 49° (NE) 1,872 4.3 -24.7°
Enters shadow 23:51:09 15° 143° (SE) 4,474 6.0 -24.5°
